Location: Unspecified
(34.1750°S, 150.8048°E)
Time: 23:37:19
(UTC+11:00)

Tiangong - Pass Details

Date: 01 October 2023
Orbit: 373 x 383 km, 41.5° (Epoch: 04 December)

Event Time Altitude Azimuth Distance (km) Brightness Sun altitude
Rises 13:52:13 0° 272° (W) 2,306 2.3 47.1°
Enters shadow 14:22:52 -48° 50° (NE) 10,005 4.6 42.0°
Exits shadow 14:57:37 -62° 206° (SSW) 11,697 5.0 35.7°
Maximum altitude 05:51:39 17° 38° (NE) 1,055 0.4 -9.7°
